Location: Cantaing
(50.1487°N, 3.1675°E)
Time: 08:53:20
(UTC+00:00)

Cosmos 1805 Rocket - Pass Details

Date: 14 January 2026
Orbit: 598 x 623 km, 82.5° (Epoch: 18 February)

Event Time Altitude Azimuth Distance (km) Brightness Sun altitude
Rises 05:48:58 0° 195° (SSW) 2,893 7.0 -17.3°
Reaches altitude 10° 05:51:12 10° 198° (SSW) 1,991 6.1 -17.0°
Maximum altitude 05:55:36 68° 281° (WNW) 676 3.5 -16.3°
Drops below altitude 10° 06:00:01 10° 6° (N) 2,001 6.1 -15.6°
Sets 06:02:16 0° 9° (N) 2,909 6.9 -15.3°
